Weather History for Kansas City International, MO

Change the Weather History Date:

Tuesday, September 18, 2012

  Actual Average Record
Temperature  
Mean Temperature 57 °F 67 °F  
Max Temperature 69 °F 78 °F 96 °F (1925)
Min Temperature 44 °F 56 °F 38 °F (1901)
Degree Days  
Heating Degree Days 8 2  
Month to date heating degree days 23 18  
Since 1 July heating degree days 23 20  
Cooling Degree Days 0 4  
Month to date cooling degree days 115 121  
Year to date cooling degree days 1779 1294  
Growing Degree Days 6 (Base 50)    
Moisture  
Dew Point 40 °F    
Average Humidity 60    
Maximum Humidity 93    
Minimum Humidity 27    
Precipitation  
Precipitation 0.00 in 0.17 in 1.86 in (1905)
Month to date precipitation 2.79 2.81  
Year to date precipitation 18.45 30.21  
Snow  
Snow 0.00 in 0.00 in 0.00 in ()
Month to date snowfall 0.0 0.0  
Since 1 July snowfall 0.0 0.0  
Since 1 September snowfall 0.0 0.0  
Snow Depth 0.00 in    
Sea Level Pressure  
Sea Level Pressure 30.06 in    
Wind  
Wind Speed 6 mph (NW)    
Max Wind Speed 16 mph    
Max Gust Speed 21 mph    
Visibility 10 miles    
Events      
T = Trace of Precipitation, MM = Missing Value Source: NWS Daily Summary

Daily Weather History Graph

Daily Weather History Graph

Search for Another Location

Airport:

Trip Planner

Search our weather history database for the weather conditions in past years. The results will help you decide how hot, cold, wet, or windy it might be!

Date:

Astronomy

Sep. 18, 2012 Rise Set
Actual Time 7:03 AM CDT 7:21 PM CDT
Civil Twilight 6:36 AM CDT 7:48 PM CDT
Nautical Twilight 6:05 AM CDT 8:19 PM CDT
Astronomical Twilight 5:32 AM CDT 8:51 PM CDT
Moon 10:02 AM CDT (9/18) 8:47 PM CDT (9/18)
Length of Visible Light 13h 11m
Length of Day
12h 18m
Waxing Crescent, 9% of the Moon is Illuminated
Sep 18
Waxing Crescent
Sep 22
First Quarter
Sep 29
Full
Oct 8
Last Quarter
Oct 15
New

Hourly Weather History & Observations

Time (CDT) Temp. Windchill Dew Point Humidity Pressure Visibility Wind Dir Wind Speed Gust Speed Precip Events Conditions
12:53 AM 50.0 °F - 48.0 °F 93% 30.01 in 10.0 mi West 3.5 mph - N/A   Clear
1:53 AM 48.9 °F - 46.9 °F 93% 30.02 in 10.0 mi WNW 8.1 mph - N/A   Clear
2:53 AM 48.9 °F - 46.0 °F 90% 30.02 in 10.0 mi WNW 6.9 mph - N/A   Clear
3:53 AM 48.0 °F - 46.0 °F 93% 30.03 in 10.0 mi WNW 6.9 mph - N/A   Clear
4:53 AM 46.9 °F - 45.0 °F 93% 30.04 in 10.0 mi NW 5.8 mph - N/A   Clear
5:53 AM 46.0 °F 43.1 °F 42.1 °F 86% 30.05 in 10.0 mi North 5.8 mph - N/A   Clear
6:53 AM 44.6 °F 41.4 °F 39.2 °F 81% 30.07 in 10.0 mi North 5.8 mph - N/A   Clear
7:53 AM 46.9 °F - 42.1 °F 83% 30.09 in 10.0 mi NNW 4.6 mph - N/A   Clear
8:53 AM 50.0 °F - 43.0 °F 77% 30.10 in 10.0 mi North 6.9 mph - N/A   Clear
9:53 AM 55.0 °F - 44.1 °F 67% 30.12 in 10.0 mi NNW 5.8 mph - N/A   Clear
10:53 AM 59.0 °F - 41.0 °F 51% 30.12 in 10.0 mi NW 8.1 mph - N/A   Clear
11:53 AM 62.1 °F - 35.1 °F 37% 30.12 in 10.0 mi NW 8.1 mph 17.3 mph N/A   Clear
12:53 PM 64.0 °F - 33.1 °F 31% 30.11 in 10.0 mi NNW 12.7 mph - N/A   Clear
1:53 PM 66.0 °F - 35.1 °F 32% 30.09 in 10.0 mi NNW 11.5 mph 16.1 mph N/A   Clear
2:53 PM 66.0 °F - 33.1 °F 29% 30.08 in 10.0 mi Calm Calm - N/A   Clear
3:53 PM 66.9 °F - 36.0 °F 32% 30.06 in 10.0 mi WSW 5.8 mph - N/A   Clear
4:53 PM 68.0 °F - 34.0 °F 28% 30.04 in 10.0 mi WNW 4.6 mph - N/A   Clear
5:53 PM 66.9 °F - 34.0 °F 30% 30.04 in 10.0 mi Calm Calm - N/A   Clear
6:53 PM 64.9 °F - 36.0 °F 34% 30.04 in 10.0 mi Calm Calm - N/A   Clear
7:53 PM 60.1 °F - 39.0 °F 46% 30.04 in 10.0 mi SE 5.8 mph - N/A   Clear
8:53 PM 57.9 °F - 39.0 °F 49% 30.04 in 10.0 mi SE 6.9 mph - N/A   Clear
9:53 PM 55.9 °F - 39.9 °F 55% 30.04 in 10.0 mi SE 6.9 mph - N/A   Clear
10:53 PM 54.0 °F - 41.0 °F 62% 30.04 in 10.0 mi SSE 8.1 mph - N/A   Clear
11:53 PM 54.0 °F - 42.1 °F 64% 30.03 in 10.0 mi SSE 9.2 mph - N/A   Clear